Weather in Novonikolayevsky

Russia / Voronezh Oblast     51°06′36″N   39°14′50″E
temp.,
°C
wind,
m/s
gust,
m/s
humid.,
%
clouds,
%
prec.,
mm/h
press.,
hPa
HPBL,
m
25 february, thu
thu2500:00−12ssw5994100 0.5 1036415
03:00−11ssw51094100 0.8 1034397
06:00−10sw61190100 0.3 1031404
09:00−8sw61192100 0.3 1029373
12:00−4sw71192100 0.1 1027430
15:00−1sw81393100 0.2 1023400
18:00+1wsw81595100 0.4 1021480
21:00+2w51199100 0.8 1020278
26 february, fri
fri2600:00+2w51299100 0.4 1020333
03:00+2w41099100 0.5 1020270
06:00+2w3899100 0.1 1019191
09:00+2w410100100 0.2 1018256
12:00+2w41099100 0.0 1017297
15:00+3wsw71398100 0.0 1016457
18:00+3w61498100 0.1 1013387
21:00+2w51297100 0.3 1013361
27 february, sat
sat2700:00+2w51295100 0.0 1011451
03:00+1w41196100 0.0 1011394
06:00+1wsw51194100 0.0 1009424
09:00+1w51194100 0.1 1008473
12:00+1w51195100 0.1 1008580
15:00+1w61194100 0.3 1007623
18:00+1w5109899 0.1 1006486
21:00+1w5109899 0.2 1007469
28 february, sun
sun2800:000wnw51291100 0.1 1008601
03:00−4n6108299 0.3 1011801
06:00−6nnw71076100 0.0 1013805
09:00−8nnw6976100 0.1 1015753
12:00−7nnw6872100 0.0 1017751
15:00−5nnw6870100 0.0 1018765
18:00−6nnw5976100 0.0 1019712
21:00−7n5881100 0.0 1022672
1 march, mon
mon100:00−7n4783100 0.0 1023645
03:00−7n3786100 0.0 1025558
06:00−8nnw378785 0.0 1026509
09:00−7n478275 0.0 1028576
12:00−5n4673100 0.0 1029630
15:00−3nnw467089 0.0 1030647
18:00−4nw368013 0.0 1030418
21:00−5wnw36886 0.0 1031252